User: anonymous   Login
Location: Unspecified
(0.0000°N, 0.0000°E)
Time: 02:49:06
(UTC+00:00)
Language:

ORS OBJECT Z - Orbit

View from above orbital plane
View from above orbital plane
View from above satellite
View from above satellite

Ground track
Ground track

The orbit data is extracted from the following two-line orbital elements,

1 39403U 13064Z   17147.48230397 +.00004507 +00000-0 +87432-4 0  9993
2 39403 040.5231 169.7893 0000987 127.9886 232.1022 15.48449184195593
Epoch (UTC): 27 May 2017 11:34:31
Eccentricity: 0.0000987
inclination: 40.5231°
perigee height: 420 km
apogee height: 422 km
right ascension of ascending node: 169.7893°
argument of perigee: 127.9886°
revolutions per day: 15.48449184
mean anomaly at epoch: 232.1022°
orbit number at epoch: 19559

The dashed part of the orbit path shows where the satellite is in the earth's shadow,  

DLR